User: anonymous   Login
Location: Bakov nad Jizerou
(50.4784°N, 14.9394°E)
Time: 21:09:52
(UTC+00:00)
Language:

RESURS O1 DEB - Orbit

View from above orbital plane
View from above orbital plane
View from above satellite
View from above satellite

Ground track
Ground track

The orbit data is extracted from the following two-line orbital elements,

1 48515U 94074ES  22024.38154589  .00005875  00000-0  73686-3 0  9998
2 48515  97.8973  75.5411 0000653 163.0905 197.0330 14.82554849 44426
Epoch (UTC): 24 January 2022 09:09:25
Eccentricity: 0.0000653
inclination: 97.8973°
perigee height: 621 km
apogee height: 622 km
right ascension of ascending node: 75.5411°
argument of perigee: 163.0905°
revolutions per day: 14.82554849
mean anomaly at epoch: 197.0330°
orbit number at epoch: 4442

The dashed part of the orbit path shows where the satellite is in the earth's shadow,  

DLR